Regional Weather Roundup
Issued by NWS Jackson, KY

Home | Current Version | Previous Version | Text Only | Print | Product List | Glossary On
Versions: 1 2 3 4 5 6 7 8 9 10 11 12 13 14 15 16 17 18 19 20 21 22 23 24 25 26 27 28 29 30 31 32 33 34 35 36 37 38 39 40 41 42 43 44 45 46 47 48 49 50
000
ASUS43 KJKL 301710
RWRJKL

EAST KENTUCKY HOURLY WEATHER ROUNDUP
NATIONAL WEATHER SERVICE JACKSON KY
100 PM EDT SAT APR 30 2016

NOTE: "FAIR" INDICATES FEW OR NO CLOUDS BELOW 12,000 FEET WITH
NO SIGNIFICANT WEATHER AND/OR OBSTRUCTIONS TO VISIBILITY.

* THESE REPORTS ARE NOT UNDER NWS QUALITY CONTROL AND MAY NOT
  REPORT WEATHER SUCH AS PRECIPITATION AND FOG.

KYZ079-080-083-085-087-088-110-112-115-119-120-301800
...EASTERN KENTUCKY...

CITY           SKY/WX    TMP DP  RH WIND       PRES   REMARKS
JACKSON        LGT RAIN  60  56  86 VRB3      30.05R
LONDON         CLOUDY    62  57  83 E3        30.03F
SOMERSET*      LGT RAIN  59  59 100 E3        30.02S
MONTICELLO*    LGT RAIN  62  59  90 NE8       30.03S
WILLIAMSBURG*  CLOUDY    59  57  94 SW3       30.05R
MIDDLESBORO*   CLOUDY    66  61  84 S3        30.02F
HARLAN APT*    CLOUDY    63  55  77 CALM      30.05R
HAZARD APT*    CLOUDY    63  61  94 CALM      30.04S
BLACK MTN*       N/A     61  50  67 S5          N/A
PIKE CO APT*   RAIN      62  59  90 N3        30.03R
BIG SANDY APT* RAIN      63  59  86 CALM      30.04R
MOREHEAD APT*  LGT RAIN  59  55  88 CALM      30.08R
$$

KYZ035-036-041-042-044-050-067-078-099-301800
...CENTRAL KENTUCKY...

CITY           SKY/WX    TMP DP  RH WIND       PRES   REMARKS
MT STERLING*   LGT RAIN  59  59 100 E6        30.04F
FLEMING/MASON* LGT RAIN  56  54  93 NE5       30.07R
DANVILLE*      LGT RAIN  59  57  94 SE5       30.02S
RICHMOND*      CLOUDY    59  55  88 E7        30.01F
LEXINGTON      LGT RAIN  60  57  89 E10       29.99F
FRANKFORT      LGT RAIN  60  57  89 E9        29.97F FOG
LOUISVILLE     LGT RAIN  62  59  90 E8        29.96S FOG
LEBANON*         N/A     63  59  88 E8        29.97F
BOWLING GREEN  RAIN      67  61  81 CALM      29.95R
$$

KYZ091>093-OHZ055-061-077-WVZ005-015-034-035-042-301800
...SOUTHERN OHIO/WEST VIRGINIA...

CITY           SKY/WX    TMP DP  RH WIND       PRES   REMARKS
COVINGTON      LGT RAIN  55  54  96 E10       30.01F FOG
COLUMBUS       LGT RAIN  53  48  83 CALM      30.07R
DAYTON         LGT RAIN  51  49  92 SE10      30.06F FOG
WILMINGTON     LGT RAIN  52  49  89 E5        30.06F FOG
HUNTINGTON     LGT RAIN  59  53  80 CALM      30.05R
CHARLESTON     CLOUDY    64  54  69 NE6       30.01F
PINEVILLE*       N/A     73  49  42 MISG      30.08S
BECKLEY        CLOUDY    65  51  60 S13G20    30.08S
$$

VAZ002-007-008-TNZ017-027-036-066-071-301800
...SOUTHWEST VIRGINIA/EAST TENNESSEE...

CITY           SKY/WX    TMP DP  RH WIND       PRES   REMARKS
WISE*          CLOUDY    66  48  52 SW3       30.08S
BRISTOL        CLOUDY    75  57  53 CALM      30.02S
MORRISTOWN*    CLOUDY    77  59  53 VRB5      29.99F
SEVIERVILLE*   SUNNY     75  57  53 N5        29.96F
KNOXVILLE      CLOUDY    75  57  53 N6        29.96F
OAK RIDGE      CLOUDY    70  56  61 VRB3      29.98F
CROSSVILLE     CLOUDY    69  58  67 E6        30.01F
NASHVILLE      CLOUDY    69  63  81 CALM      29.95R
$$

...KEY TO REMARKS...
VSB - VISIBILITY IN MILES
WCI - WIND CHILL INDEX
HX  - HEAT INDEX

$$



USA.gov is the U.S. government's official web portal to all federal, state and local government web resources and services.